www.pogodaiklimat.ru

Погода и климат >> Архив погоды >> Индия >> Карнатака >> Хоннавар


ПОГОДА в Хоннаваре

  • Прогноз погоды в Хоннаваре
  • Монитор погоды в Хоннаваре

АРХИВ ПОГОДЫ в Хоннаваре

Время (UTC), дата Ветер
(напр.,м/с)
 
Видим.   Явления Облачность Т
(С)
Тd
(С)
f
(%)
Тe
(С)
Тes
(С)
Комфортность P
(гПа)
Po
(гПа)
Тmin
(С)
Tmax
(С)
R
(мм)
R24
(мм)
S
(см)
00 15.08 СЗ 3 4000 м слаб. морось {дождь} 10/8 200 м
[St As op]
+22.6 +22.6 100 +31 +31 очень
душно
1010.2 1007.2 75
03 15.08 В 1 2000 м {дождь, морось} 10/8 200 м
[St As op]
+24.0 +24.0 100 +33 +33 очень
душно
1011.3 1008.3 +22.6 +25.2 82
06 15.08 З 1 4000 м 10/8 300 м
[St As op]
+24.0 +23.1 95 +32 +33 очень
душно
1011.7 1008.7 20
09 15.08 З 1 4000 м слаб. морось {дождь} 10/8 200 м
[Frnb As op]
+25.0 +24.1 95 +34 +35 очень
душно
1009.5 1006.6 6
12 15.08 З 1 10 км {дождь, морось} 10/8 200 м
[St As op]
+25.2 +24.9 98 +36 +36 очень
душно
1008.5 1005.6 +25.6 43
15 15.08 З 1 4000 м слаб. морось {дождь} 10/8 300 м
[St As op]
+24.6 +24.0 96 +34 +34 очень
душно
1010.2 1007.3 47
18 15.08 В 1 4000 м {морось} 10/8 300 м
[St As op]
+24.0 +22.8 93 +32 +32 очень
душно
1010.8 1007.8 47
21 15.08 ЮЗ 2 4000 м сильн. морось {дождь} 10/8 200 м
[St As op]
+24.2 +23.6 96 +33 +33 очень
душно
1009.5 1006.6 73
00 16.08 З 1 4000 м слаб. морось {дождь} 10/8 200 м
[St As op]
+24.6 +24.3 98 +34 +34 очень
душно
1009.8 1006.9 83
03 16.08 штиль 0 10 км {морось} 10/8 200 м
[St As op]
+25.2 +24.9 98 +36 +36 очень
душно
1010.2 1007.3 +23.5 +25.6 84
06 16.08 З 1 10 км в посл. час дождь {морось} 9/6 200 м
[Cu Sc Ac As]
+27.2 +25.5 90 +40 +44 очень
душно
1010.6 1007.7 2
09 16.08 З 1 4000 м {дождь} 10/8 200 м
[St As op]
+27.0 +25.6 92 +40 +41 очень
душно
1009.7 1006.8 4
12 16.08 СЗ 2 4000 м {дождь} 10/8 200 м
[St As op]
+25.0 +23.8 93 +34 +34 очень
душно
1007.9 1005.0 +27.6 10
15 16.08 СЗ 1 4000 м {дождь} 10/8 200 м
[St As op]
+24.4 +23.8 96 +33 +33 очень
душно
1009.1 1006.2 12
18 16.08 З 3 4000 м слаб. дождь 10/8 200 м
[Frnb As op]
+24.4 +23.8 96 +33 +33 очень
душно
1010.2 1007.3 19
21 16.08 В 2 4000 м {дождь} 9/8 300 м
[St As op]
+24.0 +24.0 100 +33 +33 очень
душно
1008.4 1005.4 32
00 17.08 В 2 4000 м {дождь} 9/8 300 м
[St As op]
+24.0 +24.0 100 +33 +33 очень
душно
1008.3 1005.3 34
03 17.08 В 1 4000 м {дождь} 10/8 200 м
[St As op]
+24.4 +24.4 100 +34 +34 очень
душно
1009.1 1006.2 +23.5 +27.6 34
06 17.08 З 2 4000 м {дождь} 10/8 200 м
[St As op]
+26.4 +25.0 92 +38 +39 очень
душно
1009.8 1006.9
09 17.08 З 1 4000 м {морось} 8/5
[St As op]
+27.2 +24.9 87 +39 +44 очень
душно
1007.9 1005.0
12 17.08 З 1 4000 м 9/8 300 м
[St As op]
+26.8 +23.9 84 +37 +37 очень
душно
1007.1 1004.2 +28.2 2
18 17.08 штиль 0 4000 м 9/6 200 м
[St]
+25.6 +24.7 95 +36 +36 очень
душно
1010.0 1007.1 2
21 17.08 ЮЗ 1 4000 м 10/8 200 м
[St As op]
+25.2 +24.9 98 +36 +36 очень
душно
1008.5 1005.6 2
00 18.08 ЮЗ 1 4000 м 8/5 200 м
[St Ac As]
+25.0 +24.7 98 +35 +35 очень
душно
1008.5 1005.6 2
03 18.08 ЮВ 1 4000 м {дождь} 8/5 300 м
[St As op]
+25.6 +25.3 98 +37 +39 очень
душно
1009.9 1007.0 +24.7 +28.2 5
06 18.08 З 1 4000 м {дождь} 10/8 300 м
[St As op]
+27.4 +25.4 89 +40 +41 очень
душно
1010.6 1007.7 0.6
09 18.08 З 1 4000 м {дождь} 10/8 200 м
[St As op]
+26.8 +24.8 89 +38 +39 очень
душно
1008.9 1006.0 2
12 18.08 ЮЗ 2 4000 м в посл. час дождь {морось} 10/8 200 м
[St As op]
+25.4 +24.2 93 +35 +35 очень
душно
1008.3 1005.4 +27.8 18
15 18.08 В 1 4000 м {дождь} 10/8 200 м
[St As op]
+25.0 +24.4 96 +35 +35 очень
душно
1010.2 1007.3 19
18 18.08 СЗ 1 4000 м {дождь} 10/8 200 м
[St As op]
+24.4 +23.8 96 +33 +33 очень
душно
1011.3 1008.4 19
21 18.08 З 1 4000 м 10/8 200 м
[St As op]
+24.2 +23.9 98 +33 +33 очень
душно
1009.5 1006.6 19
00 19.08 В 1 4000 м 10/8 300 м
[St As op]
+24.2 +23.9 98 +33 +33 очень
душно
1009.1 1006.2 19
03 19.08 В 1 10 км 6/4 300 м
[Sc Ci fib]
+25.4 +24.8 96 +36 +40 очень
душно
1010.6 1007.7 +23.8 +27.8 19
06 19.08 ЮЗ 2 10 км 8/5 300 м
[Sc Ci fib]
+26.4 +24.7 90 +37 +47 очень
душно
1011.4 1008.5
09 19.08 З 1 10 км 8/5 200 м
[Cu Sc Ac As]
+27.8 +24.6 83 +39 +45 очень
душно
1009.7 1006.8
12 19.08 З 1 10 км 8/5 200 м
[Cu Sc Ac As]
+27.8 +23.7 78 +38 +39 очень
душно
1008.8 1005.9 +28.5
15 19.08 ЮЗ 1 4000 м 5/4 600 м
[Sc Ci fib]
+26.6 +24.9 90 +38 +38 очень
душно
1010.0 1007.1
18 19.08 В 1 4000 м {морось} 8/5 600 м
[St As op]
+25.0 +23.5 91 +34 +34 очень
душно
1011.1 1008.2 0.2
21 19.08 ЮЗ 1 4000 м в посл. час дождь {морось} 10/8 200 м
[St As op]
+25.0 +24.7 98 +35 +35 очень
душно
1009.6 1006.7 16
00 20.08 СВ 1 4000 м слаб. морось {дождь} 10/8 300 м
[St As op]
+24.6 +24.3 98 +34 +34 очень
душно
1010.1 1007.2 18
03 20.08 ЮЗ 1 10 км {морось} 6/4 200 м
[Cu Sc Ac As]
+25.6 +24.7 95 +36 +39 очень
душно
1011.3 1008.4 +24.1 +28.5 19
06 20.08 З 1 10 км 9/6 200 м
[Cu Sc Ac As]
+28.4 +25.0 82 +41 +46 опасность
перегрева
1008.7 1008.7
09 20.08 ЮЗ 2 10 км 8/5 200 м
[Cu Sc Ac trans]
+28.6 +24.9 80 +41 +47 опасность
перегрева
1009.1 1006.2
12 20.08 ЮЗ 3 10 км 10/5 200 м
[Cu Sc Ac trans]
+28.8 +25.1 80 +42 +42 опасность
перегрева
1007.5 1004.6 +29.4
15 20.08 З 2 4000 м 5/5 300 м
[St]
+27.8 +24.3 81 +39 +39 очень
душно
1009.6 1006.7
18 20.08 З 1 4000 м в посл. час дождь 5/5 300 м
[St]
+26.0 +24.6 92 +37 +37 очень
душно
1010.6 1007.7 12
21 20.08 В 1 4000 м {дождь} 5/5 300 м
[St]
+25.0 +24.1 95 +34 +34 очень
душно
1009.1 1006.2 15
00 21.08 В 1 4000 м {дождь} 5/5 300 м
[St]
+25.0 +24.1 95 +34 +34 очень
душно
1008.9 1006.0 15
03 21.08 ЮЗ 1 4000 м {дождь} 10/8 200 м
[St As op]
+25.4 +25.1 98 +36 +37 очень
душно
1010.3 1007.4 +24.2 +29.4 19
06 21.08 З 1 10 км 8/5 200 м
[Cu Sc Ac trans]
+28.2 +24.8 82 +40 +48 очень
душно
1011.4 1008.5
09 21.08 З 2 10 км 8/4 300 м
[St As op]
+28.8 +24.5 78 +41 +46 опасность
перегрева
1008.8 1005.9 5
12 21.08 З 2 10 км 8/5 300 м
[St As op]
+28.4 +25.0 82 +41 +41 опасность
перегрева
1008.0 1005.1 +29.6 5
15 21.08 З 1 4000 м в посл. час морось 5/5 200 м
[St]
+26.8 +24.2 86 +37 +37 очень
душно
1009.9 1007.0 5
18 21.08 З 1 4000 м {морось} 9/6 200 м
[St Ac As]
+25.2 +24.9 98 +36 +36 очень
душно
1010.5 1007.6 6

 

Местоположение метеостанции Хоннавар (Карнатака, Индия): широта 14.28 долгота 74.45 высота над уровнем моря 9 м.

В архиве по умолчанию представлена погода в Хоннаваре за последнюю неделю. Архивные данные за месяц целиком и за предыдущие месяцы, начиная с января 2011 года, Вы можете получить, выбрав интересующий диапазон дат из раскрывающегося списка и нажав кнопку "Ввод!".


*Определитесь, кто Вы:
робот инопланетянин человек

Внимание! Время в таблицах - всемирное. Для получения местного времени необходимо прибавить поправку, которая равна 5.5 ч.

Смотрите также архив погоды в соседних городах и на ближайших метеорологических станциях:

Погода в Ширали (Карнатака, Индия) (25 км)
Погода в Карваре (Карнатака, Индия) (65 км)
Погода на Агамбе (Карнатака, Индия) (110 км)
Погода в Хавери (Карнатака, Индия) (116 км)
Погода в Шимоге (Карнатака, Индия) (133 км)
Погода в Дхарваде (Карнатака, Индия) (145 км)
Погода в Мормугао (Гоа, Индия) (146 км)
Погода в Панаджи (Гоа, Индия) (150 км)
Погода в Мангалоре (Карнатака, Индия) (154 км)
Погода в Мангалор аэропорт (Карнатака, Индия) (158 км)

Пояснения к столбцам:

Ветер - указаны скорость ветра в м/с - средняя за 10 мин, порывы в срок и между сроками (в фигурных скобках) и направление, откуда дует ветер: С - северный, СВ - северо-восточный, В - восточный, ЮВ - юго-восточный, Ю - южный, ЮЗ - юго-западный, З - западный, СЗ - северо-западный.
Видимость - горизонтальная дальность видимости в метрах или километрах. При видимости от 1 до 10 км при отсутствии осадков обычно наблюдается дымка, при ухудшении видимости до 1 км и менее - туман. В сухую погоду видимость может ухудшаться дымом, пылью или мглою.
Явления - указаны атмосферные явления, наблюдавшиеся в срок или в последний час перед сроком; фигурными скобками обозначены явления, наблюдавшиеся между сроками (за 1-3 часа до срока); квадратными скобками обозначены град или гололедные отложения с указанием их диаметра в мм.
Облачность - указаны через наклонную черту общая и нижняя облачность в баллах и высота нижней границы облаков в метрах; квадратными скобками обозначены формы облаков: Ci - перистые, Cs - перисто-слоистые, Cc - перисто-кучевые, Ac - высококучевые, As - высокослоистые, Sc - слоисто-кучевые, Ns - слоисто-дождевые, Cu - кучевые, Cb - кучево-дождевые. Подробнее классификацию облаков см. в Атласе облаков (PDF).
T - Температура воздуха - температура, измеренная на высоте 2 м над землей.
Td - Температура точки росы - температура, при понижении до которой содержащийся в воздухе водяной пар достигнет насыщения.
f - Относительная влажность воздуха - влажноcть воздуха, измеренная на высоте 2 м над землей.
Te - Эффективная температура - температура, которую ощущает одетый по сезону человек в тени. Характеристика душности погоды. При расчете учитывается влияние влажности воздуха и скорости ветра на теплоощущения человека.
Tes - Эффективная температура на солнце - температура, которую ощущает человек, с поправкой на солнечный нагрев. Характеристика знойности погоды. Зависит от высоты солнца над горизонтом, облачности и скорости ветра. Ночью, в пасмурную погоду, а также при ветре 12 м/с и более поправка равна нулю.
P - Атмосферное давление - приведенное к уровню моря атмосферное давление.
Po - Атмосферное давление - измеренное на уровне метеостанции атмосферное давление.
Tmin - Минимальная температура - минимум температуры воздуха на высоте 2 м над землей.
Tmax - Максимальная температура - максимум температуры воздуха на высоте 2 м над землей.
R - Количество осадков - Количество выпавших осадков за период времени, мм. При наведении курсора мыши на число - период времени, за который выпало указанное количество осадков.
R24 - Количество осадков - Количество выпавших осадков за 24 часа, мм.
S - Снежный покров - Высота снежного покрова, см. При наведении курсора мыши на число - состояние снежного покрова и степень покрытия местности в баллах.